owner,sensor,date,latitude,longitude,vertical_datum,sea_water_speed,direction_of_sea_water_velocity,upward_sea_water_velocity,qcFlag
Chevron,ioos:station:GCOOS:42G03:1,2024-04-01T00:06:00Z,27.2267,-91.1901,30.7,24.5,11111222
Chevron,ioos:station:GCOOS:42G03:1,2024-04-01T00:16:00Z,27.2267,-91.1901,30.7,24.5,11111222
Chevron,ioos:station:GCOOS:42G03:1,2024-04-01T00:26:00Z,27.2267,-91.1901,30.7,24.5,11111222
Chevron,ioos:station:GCOOS:42G03:1,2024-04-01T00:36:00Z,27.2267,-91.1901,30.7,24.5,11111222
Chevron,ioos:station:GCOOS:42G03:1,2024-04-01T00:46:00Z,27.2267,-91.1901,30.7,24.5,11111222
Chevron,ioos:station:GCOOS:42G03:1,2024-04-01T00:56:00Z,27.2267,-91.1901,30.7,24.5,11111222
Chevron,ioos:station:GCOOS:42G03:1,2024-04-01T01:06:00Z,27.2267,-91.1901,30.7,24.5,11111222
Chevron,ioos:station:GCOOS:42G03:1,2024-04-01T01:16:00Z,27.2267,-91.1901,30.7,24.6,11111222
Chevron,ioos:station:GCOOS:42G03:1,2024-04-01T01:26:00Z,27.2267,-91.1901,30.7,24.6,11111222
Chevron,ioos:station:GCOOS:42G03:1,2024-04-01T01:36:00Z,27.2267,-91.1901,30.7,24.6,11111222
Chevron,ioos:station:GCOOS:42G03:1,2024-04-01T01:46:00Z,27.2267,-91.1901,30.7,24.6,11111222
Chevron,ioos:station:GCOOS:42G03:1,2024-04-01T01:56:00Z,27.2267,-91.1901,30.7,24.6,11111222
Chevron,ioos:station:GCOOS:42G03:1,2024-04-01T02:06:00Z,27.2267,-91.1901,30.7,24.6,11111222
Chevron,ioos:station:GCOOS:42G03:1,2024-04-01T02:16:00Z,27.2267,-91.1901,30.7,24.6,11111222
Chevron,ioos:station:GCOOS:42G03:1,2024-04-01T02:26:00Z,27.2267,-91.1901,30.7,24.6,11111222
Chevron,ioos:station:GCOOS:42G03:1,2024-04-01T02:36:00Z,27.2267,-91.1901,30.7,24.6,11111222
Chevron,ioos:station:GCOOS:42G03:1,2024-04-01T02:46:00Z,27.2267,-91.1901,30.7,24.7,11111222
Chevron,ioos:station:GCOOS:42G03:1,2024-04-01T02:56:00Z,27.2267,-91.1901,30.7,24.7,11111222
Chevron,ioos:station:GCOOS:42G03:1,2024-04-01T03:06:00Z,27.2267,-91.1901,30.7,24.7,11111222
Chevron,ioos:station:GCOOS:42G03:1,2024-04-01T03:16:00Z,27.2267,-91.1901,30.7,24.7,11111222
Chevron,ioos:station:GCOOS:42G03:1,2024-04-01T03:26:00Z,27.2267,-91.1901,30.7,24.7,11111222
Chevron,ioos:station:GCOOS:42G03:1,2024-04-01T03:36:00Z,27.2267,-91.1901,30.7,24.7,11111222
Chevron,ioos:station:GCOOS:42G03:1,2024-04-01T03:46:00Z,27.2267,-91.1901,30.7,24.7,11111222
Chevron,ioos:station:GCOOS:42G03:1,2024-04-01T03:56:00Z,27.2267,-91.1901,30.7,24.8,11111222
Chevron,ioos:station:GCOOS:42G03:1,2024-04-01T04:06:00Z,27.2267,-91.1901,30.7,24.8,11111222
Chevron,ioos:station:GCOOS:42G03:1,2024-04-01T04:16:00Z,27.2267,-91.1901,30.6,24.8,11111222
Chevron,ioos:station:GCOOS:42G03:1,2024-04-01T04:26:00Z,27.2267,-91.1901,30.6,24.8,11111222
Chevron,ioos:station:GCOOS:42G03:1,2024-04-01T04:36:00Z,27.2267,-91.1901,30.6,24.8,11111222
Chevron,ioos:station:GCOOS:42G03:1,2024-04-01T04:46:00Z,27.2267,-91.1901,30.6,24.8,11111222
Chevron,ioos:station:GCOOS:42G03:1,2024-04-01T05:05:00Z,27.2267,-91.1901,30.6,24.9,11111222
Chevron,ioos:station:GCOOS:42G03:1,2024-04-01T05:15:00Z,27.2267,-91.1901,30.7,24.9,11111222
Chevron,ioos:station:GCOOS:42G03:1,2024-04-01T05:25:00Z,27.2267,-91.1901,30.7,24.9,11111222
Chevron,ioos:station:GCOOS:42G03:1,2024-04-01T05:35:00Z,27.2267,-91.1901,30.7,24.9,11111222
Chevron,ioos:station:GCOOS:42G03:1,2024-04-01T05:46:00Z,27.2267,-91.1901,30.7,24.9,11111222
Chevron,ioos:station:GCOOS:42G03:1,2024-04-01T05:56:00Z,27.2267,-91.1901,30.7,24.9,11111222
Chevron,ioos:station:GCOOS:42G03:1,2024-04-01T06:06:00Z,27.2267,-91.1901,30.7,24.9,11111222
Chevron,ioos:station:GCOOS:42G03:1,2024-04-01T06:16:00Z,27.2267,-91.1901,30.7,24.9,11111222
Chevron,ioos:station:GCOOS:42G03:1,2024-04-01T06:26:00Z,27.2267,-91.1901,30.7,24.9,11111222
Chevron,ioos:station:GCOOS:42G03:1,2024-04-01T06:36:00Z,27.2267,-91.1901,30.7,24.9,11111222
Chevron,ioos:station:GCOOS:42G03:1,2024-04-01T06:46:00Z,27.2267,-91.1901,30.7,24.9,11111222
Chevron,ioos:station:GCOOS:42G03:1,2024-04-01T06:56:00Z,27.2267,-91.1901,30.7,24.9,11111222
Chevron,ioos:station:GCOOS:42G03:1,2024-04-01T07:06:00Z,27.2267,-91.1901,30.7,24.9,11111222
Chevron,ioos:station:GCOOS:42G03:1,2024-04-01T07:16:00Z,27.2267,-91.1901,30.7,24.9,11111222
Chevron,ioos:station:GCOOS:42G03:1,2024-04-01T07:26:00Z,27.2267,-91.1901,30.7,24.9,11111222
Chevron,ioos:station:GCOOS:42G03:1,2024-04-01T07:36:00Z,27.2267,-91.1901,30.7,24.9,11111222
Chevron,ioos:station:GCOOS:42G03:1,2024-04-01T07:46:00Z,27.2267,-91.1901,30.7,24.9,11111222
Chevron,ioos:station:GCOOS:42G03:1,2024-04-01T07:56:00Z,27.2267,-91.1901,30.7,24.9,11111222
Chevron,ioos:station:GCOOS:42G03:1,2024-04-01T08:06:00Z,27.2267,-91.1901,30.6,24.9,11111222
Chevron,ioos:station:GCOOS:42G03:1,2024-04-01T08:16:00Z,27.2267,-91.1901,30.6,24.9,11111222
Chevron,ioos:station:GCOOS:42G03:1,2024-04-01T08:26:00Z,27.2267,-91.1901,30.6,24.9,11111222
Chevron,ioos:station:GCOOS:42G03:1,2024-04-01T08:36:00Z,27.2267,-91.1901,30.6,24.9,11111222
Chevron,ioos:station:GCOOS:42G03:1,2024-04-01T08:46:00Z,27.2267,-91.1901,30.6,24.9,11111222
Chevron,ioos:station:GCOOS:42G03:1,2024-04-01T08:56:00Z,27.2267,-91.1901,30.6,24.9,11111222
Chevron,ioos:station:GCOOS:42G03:1,2024-04-01T09:06:00Z,27.2267,-91.1901,30.6,24.9,11111222
Chevron,ioos:station:GCOOS:42G03:1,2024-04-01T09:16:00Z,27.2267,-91.1901,30.6,24.8,11111222
Chevron,ioos:station:GCOOS:42G03:1,2024-04-01T09:26:00Z,27.2267,-91.1901,30.6,24.8,11111222
Chevron,ioos:station:GCOOS:42G03:1,2024-04-01T09:36:00Z,27.2267,-91.1901,30.6,24.8,11111222
Chevron,ioos:station:GCOOS:42G03:1,2024-04-01T09:46:00Z,27.2267,-91.1901,30.6,24.8,11111222
Chevron,ioos:station:GCOOS:42G03:1,2024-04-01T09:56:00Z,27.2267,-91.1901,30.6,24.8,11111222
Chevron,ioos:station:GCOOS:42G03:1,2024-04-01T10:06:00Z,27.2267,-91.1901,30.6,24.8,11111222
Chevron,ioos:station:GCOOS:42G03:1,2024-04-01T10:16:00Z,27.2267,-91.1901,30.6,24.8,11111222
Chevron,ioos:station:GCOOS:42G03:1,2024-04-01T10:26:00Z,27.2267,-91.1901,30.6,24.8,11111222
Chevron,ioos:station:GCOOS:42G03:1,2024-04-01T10:36:00Z,27.2267,-91.1901,30.6,24.8,11111222
Chevron,ioos:station:GCOOS:42G03:1,2024-04-01T10:46:00Z,27.2267,-91.1901,30.6,24.8,11111222
Chevron,ioos:station:GCOOS:42G03:1,2024-04-01T11:05:00Z,27.2267,-91.1901,30.6,24.8,11111222
Chevron,ioos:station:GCOOS:42G03:1,2024-04-01T11:15:00Z,27.2267,-91.1901,30.6,24.8,11111222
Chevron,ioos:station:GCOOS:42G03:1,2024-04-01T11:25:00Z,27.2267,-91.1901,30.6,24.8,11111222
Chevron,ioos:station:GCOOS:42G03:1,2024-04-01T11:35:00Z,27.2267,-91.1901,30.6,24.8,11111222
Chevron,ioos:station:GCOOS:42G03:1,2024-04-01T11:46:00Z,27.2267,-91.1901,30.6,24.7,11111222
Chevron,ioos:station:GCOOS:42G03:1,2024-04-01T11:56:00Z,27.2267,-91.1901,30.6,24.7,11111222
Chevron,ioos:station:GCOOS:42G03:1,2024-04-01T12:06:00Z,27.2267,-91.1901,30.6,24.7,11111222
Chevron,ioos:station:GCOOS:42G03:1,2024-04-01T12:16:00Z,27.2267,-91.1901,30.6,24.7,11111222
Chevron,ioos:station:GCOOS:42G03:1,2024-04-01T12:26:00Z,27.2267,-91.1901,30.6,24.7,11111222
Chevron,ioos:station:GCOOS:42G03:1,2024-04-01T12:36:00Z,27.2267,-91.1901,30.6,24.7,11111222
Chevron,ioos:station:GCOOS:42G03:1,2024-04-01T12:46:00Z,27.2267,-91.1901,30.6,24.7,11111222
Chevron,ioos:station:GCOOS:42G03:1,2024-04-01T12:56:00Z,27.2267,-91.1901,30.6,24.7,11111222
Chevron,ioos:station:GCOOS:42G03:1,2024-04-01T13:06:00Z,27.2267,-91.1901,30.6,24.7,11111222
Chevron,ioos:station:GCOOS:42G03:1,2024-04-01T13:16:00Z,27.2267,-91.1901,30.6,24.7,11111222
Chevron,ioos:station:GCOOS:42G03:1,2024-04-01T13:26:00Z,27.2267,-91.1901,30.6,24.7,11111222
Chevron,ioos:station:GCOOS:42G03:1,2024-04-01T13:36:00Z,27.2267,-91.1901,30.6,24.7,11111222
Chevron,ioos:station:GCOOS:42G03:1,2024-04-01T13:46:00Z,27.2267,-91.1901,30.6,24.7,11111222
Chevron,ioos:station:GCOOS:42G03:1,2024-04-01T13:56:00Z,27.2267,-91.1901,30.6,24.7,11111222
Chevron,ioos:station:GCOOS:42G03:1,2024-04-01T14:06:00Z,27.2267,-91.1901,30.6,24.6,11111222
Chevron,ioos:station:GCOOS:42G03:1,2024-04-01T14:16:00Z,27.2267,-91.1901,30.6,24.6,11111222
Chevron,ioos:station:GCOOS:42G03:1,2024-04-01T14:26:00Z,27.2267,-91.1901,30.6,24.6,11111222
Chevron,ioos:station:GCOOS:42G03:1,2024-04-01T14:36:00Z,27.2267,-91.1901,30.6,24.6,11111222
Chevron,ioos:station:GCOOS:42G03:1,2024-04-01T14:46:00Z,27.2267,-91.1901,30.6,24.6,11111222
Chevron,ioos:station:GCOOS:42G03:1,2024-04-01T14:56:00Z,27.2267,-91.1901,30.6,24.6,11111222
Chevron,ioos:station:GCOOS:42G03:1,2024-04-01T15:06:00Z,27.2267,-91.1901,30.6,24.6,11111222
Chevron,ioos:station:GCOOS:42G03:1,2024-04-01T15:16:00Z,27.2267,-91.1901,30.6,24.6,11111222
Chevron,ioos:station:GCOOS:42G03:1,2024-04-01T15:26:00Z,27.2267,-91.1901,30.6,24.6,11111222
Chevron,ioos:station:GCOOS:42G03:1,2024-04-01T15:36:00Z,27.2267,-91.1901,30.6,24.6,11111222
Chevron,ioos:station:GCOOS:42G03:1,2024-04-01T15:46:00Z,27.2267,-91.1901,30.6,24.6,11111222
Chevron,ioos:station:GCOOS:42G03:1,2024-04-01T15:56:00Z,27.2267,-91.1901,30.6,24.6,11111222
Chevron,ioos:station:GCOOS:42G03:1,2024-04-01T16:06:00Z,27.2267,-91.1901,30.6,24.6,11111222
Chevron,ioos:station:GCOOS:42G03:1,2024-04-01T16:16:00Z,27.2267,-91.1901,30.6,24.6,11111222
Chevron,ioos:station:GCOOS:42G03:1,2024-04-01T16:26:00Z,27.2267,-91.1901,30.6,24.6,11111222
Chevron,ioos:station:GCOOS:42G03:1,2024-04-01T16:36:00Z,27.2267,-91.1901,30.6,24.6,11111222
Chevron,ioos:station:GCOOS:42G03:1,2024-04-01T16:46:00Z,27.2267,-91.1901,30.6,24.6,11111222
Chevron,ioos:station:GCOOS:42G03:1,2024-04-01T17:05:00Z,27.2267,-91.1901,30.6,24.6,11111222
Chevron,ioos:station:GCOOS:42G03:1,2024-04-01T17:15:00Z,27.2267,-91.1901,30.6,24.6,11111222
Chevron,ioos:station:GCOOS:42G03:1,2024-04-01T17:25:00Z,27.2267,-91.1901,30.6,24.6,11111222
Chevron,ioos:station:GCOOS:42G03:1,2024-04-01T17:35:00Z,27.2267,-91.1901,30.6,24.6,11111222
Chevron,ioos:station:GCOOS:42G03:1,2024-04-01T17:46:00Z,27.2267,-91.1901,30.6,24.5,11111222
Chevron,ioos:station:GCOOS:42G03:1,2024-04-01T17:56:00Z,27.2267,-91.1901,30.6,24.1,11111222
Chevron,ioos:station:GCOOS:42G03:1,2024-04-01T18:06:00Z,27.2267,-91.1901,30.6,24.3,11111222
Chevron,ioos:station:GCOOS:42G03:1,2024-04-01T18:16:00Z,27.2267,-91.1901,30.7,24.5,11111222
Chevron,ioos:station:GCOOS:42G03:1,2024-04-01T18:26:00Z,27.2267,-91.1901,30.6,24.6,11111222
Chevron,ioos:station:GCOOS:42G03:1,2024-04-01T18:36:00Z,27.2267,-91.1901,30.6,24.6,11111222
Chevron,ioos:station:GCOOS:42G03:1,2024-04-01T18:46:00Z,27.2267,-91.1901,30.6,24.3,11111222
Chevron,ioos:station:GCOOS:42G03:1,2024-04-01T18:56:00Z,27.2267,-91.1901,30.6,24.2,11111222
Chevron,ioos:station:GCOOS:42G03:1,2024-04-01T19:06:00Z,27.2267,-91.1901,30.6,23.6,11111222
Chevron,ioos:station:GCOOS:42G03:1,2024-04-01T19:16:00Z,27.2267,-91.1901,30.6,23.3,11111222
Chevron,ioos:station:GCOOS:42G03:1,2024-04-01T19:26:00Z,27.2267,-91.1901,30.6,23.6,11111222
Chevron,ioos:station:GCOOS:42G03:1,2024-04-01T19:36:00Z,27.2267,-91.1901,30.6,23.5,11111222
Chevron,ioos:station:GCOOS:42G03:1,2024-04-01T19:46:00Z,27.2267,-91.1901,30.6,23.6,11111222
Chevron,ioos:station:GCOOS:42G03:1,2024-04-01T19:56:00Z,27.2267,-91.1901,30.6,23.6,11111222
Chevron,ioos:station:GCOOS:42G03:1,2024-04-01T20:06:00Z,27.2267,-91.1901,30.6,23.2,11111222
Chevron,ioos:station:GCOOS:42G03:1,2024-04-01T20:16:00Z,27.2267,-91.1901,30.6,23.1,11111222
Chevron,ioos:station:GCOOS:42G03:1,2024-04-01T20:26:00Z,27.2267,-91.1901,30.6,23.2,11111222
Chevron,ioos:station:GCOOS:42G03:1,2024-04-01T20:36:00Z,27.2267,-91.1901,30.6,23.6,11111222
Chevron,ioos:station:GCOOS:42G03:1,2024-04-01T20:46:00Z,27.2267,-91.1901,30.6,23.5,11111222
Chevron,ioos:station:GCOOS:42G03:1,2024-04-01T20:56:00Z,27.2267,-91.1901,30.6,23.6,11111222
Chevron,ioos:station:GCOOS:42G03:1,2024-04-01T21:06:00Z,27.2267,-91.1901,30.6,23.7,11111222
Chevron,ioos:station:GCOOS:42G03:1,2024-04-01T21:16:00Z,27.2267,-91.1901,30.6,23.9,11111222
Chevron,ioos:station:GCOOS:42G03:1,2024-04-01T21:26:00Z,27.2267,-91.1901,30.6,23.7,11111222
Chevron,ioos:station:GCOOS:42G03:1,2024-04-01T21:36:00Z,27.2267,-91.1901,30.6,23.7,11111222
Chevron,ioos:station:GCOOS:42G03:1,2024-04-01T21:46:00Z,27.2267,-91.1901,30.6,23.7,11111222
Chevron,ioos:station:GCOOS:42G03:1,2024-04-01T21:56:00Z,27.2267,-91.1901,30.6,23.7,11111222
Chevron,ioos:station:GCOOS:42G03:1,2024-04-01T22:06:00Z,27.2267,-91.1901,30.6,23.9,11111222
Chevron,ioos:station:GCOOS:42G03:1,2024-04-01T22:16:00Z,27.2267,-91.1901,30.6,23.9,11111222
Chevron,ioos:station:GCOOS:42G03:1,2024-04-01T22:26:00Z,27.2267,-91.1901,30.6,23.9,11111222
Chevron,ioos:station:GCOOS:42G03:1,2024-04-01T22:36:00Z,27.2267,-91.1901,30.6,23.9,11111222
Chevron,ioos:station:GCOOS:42G03:1,2024-04-01T22:46:00Z,27.2267,-91.1901,30.6,23.9,11111222
Chevron,ioos:station:GCOOS:42G03:1,2024-04-01T23:05:00Z,27.2267,-91.1901,30.6,23.6,11111222
Chevron,ioos:station:GCOOS:42G03:1,2024-04-01T23:15:00Z,27.2267,-91.1901,30.6,23.4,11111222
Chevron,ioos:station:GCOOS:42G03:1,2024-04-01T23:25:00Z,27.2267,-91.1901,30.6,23.7,11111222
Chevron,ioos:station:GCOOS:42G03:1,2024-04-01T23:35:00Z,27.2267,-91.1901,30.6,23.7,11111222
Chevron,ioos:station:GCOOS:42G03:1,2024-04-01T23:46:00Z,27.2267,-91.1901,30.6,23.9,11111222
Chevron,ioos:station:GCOOS:42G03:1,2024-04-01T23:56:00Z,27.2267,-91.1901,30.6,23.9,11111222
Chevron,ioos:station:GCOOS:42G03:1,2024-04-02T00:06:00Z,27.2267,-91.1901,30.6,23.9,11111222
Chevron,ioos:station:GCOOS:42G03:1,2024-04-02T00:16:00Z,27.2267,-91.1901,30.6,23.9,11111222
Chevron,ioos:station:GCOOS:42G03:1,2024-04-02T00:26:00Z,27.2267,-91.1901,30.6,23.9,11111222
Chevron,ioos:station:GCOOS:42G03:1,2024-04-02T00:36:00Z,27.2267,-91.1901,30.6,23.9,11111222
Chevron,ioos:station:GCOOS:42G03:1,2024-04-02T00:46:00Z,27.2267,-91.1901,30.6,23.7,11111222
Chevron,ioos:station:GCOOS:42G03:1,2024-04-02T00:56:00Z,27.2267,-91.1901,30.6,23.4,11111222
Chevron,ioos:station:GCOOS:42G03:1,2024-04-02T01:06:00Z,27.2267,-91.1901,30.6,23.4,11111222
Chevron,ioos:station:GCOOS:42G03:1,2024-04-02T01:16:00Z,27.2267,-91.1901,30.6,23.4,11111222
Chevron,ioos:station:GCOOS:42G03:1,2024-04-02T01:26:00Z,27.2267,-91.1901,30.6,23.4,11111222
Chevron,ioos:station:GCOOS:42G03:1,2024-04-02T01:36:00Z,27.2267,-91.1901,30.6,23.3,11111222
Chevron,ioos:station:GCOOS:42G03:1,2024-04-02T01:46:00Z,27.2267,-91.1901,30.6,23.3,11111222
Chevron,ioos:station:GCOOS:42G03:1,2024-04-02T01:56:00Z,27.2267,-91.1901,30.6,23.3,11111222
Chevron,ioos:station:GCOOS:42G03:1,2024-04-02T02:06:00Z,27.2267,-91.1901,30.6,23.2,11111222
Chevron,ioos:station:GCOOS:42G03:1,2024-04-02T02:16:00Z,27.2267,-91.1901,30.6,23.2,11111222
Chevron,ioos:station:GCOOS:42G03:1,2024-04-02T02:26:00Z,27.2267,-91.1901,30.6,23.0,11111222
Chevron,ioos:station:GCOOS:42G03:1,2024-04-02T02:36:00Z,27.2267,-91.1901,30.6,23.0,11111222
Chevron,ioos:station:GCOOS:42G03:1,2024-04-02T02:46:00Z,27.2267,-91.1901,30.7,23.1,11111222
Chevron,ioos:station:GCOOS:42G03:1,2024-04-02T02:56:00Z,27.2267,-91.1901,30.7,23.0,11111222
Chevron,ioos:station:GCOOS:42G03:1,2024-04-02T03:06:00Z,27.2267,-91.1901,30.7,22.9,11111222
Chevron,ioos:station:GCOOS:42G03:1,2024-04-02T03:16:00Z,27.2267,-91.1901,30.7,22.8,11111222
Chevron,ioos:station:GCOOS:42G03:1,2024-04-02T03:26:00Z,27.2267,-91.1901,30.7,22.8,11111222
Chevron,ioos:station:GCOOS:42G03:1,2024-04-02T03:36:00Z,27.2267,-91.1901,30.7,22.7,11111222
Chevron,ioos:station:GCOOS:42G03:1,2024-04-02T03:46:00Z,27.2267,-91.1901,30.7,22.7,11111222
Chevron,ioos:station:GCOOS:42G03:1,2024-04-02T03:56:00Z,27.2267,-91.1901,30.7,22.8,11111222
Chevron,ioos:station:GCOOS:42G03:1,2024-04-02T04:06:00Z,27.2267,-91.1901,30.7,22.6,11111222
Chevron,ioos:station:GCOOS:42G03:1,2024-04-02T04:16:00Z,27.2267,-91.1901,30.7,22.6,11111222
Chevron,ioos:station:GCOOS:42G03:1,2024-04-02T04:26:00Z,27.2267,-91.1901,30.7,22.5,11111222
Chevron,ioos:station:GCOOS:42G03:1,2024-04-02T04:36:00Z,27.2267,-91.1901,30.7,22.6,11111222
Chevron,ioos:station:GCOOS:42G03:1,2024-04-02T04:46:00Z,27.2267,-91.1901,30.7,22.9,11111222
Chevron,ioos:station:GCOOS:42G03:1,2024-04-02T05:05:00Z,27.2267,-91.1901,30.7,22.8,11111222
Chevron,ioos:station:GCOOS:42G03:1,2024-04-02T05:15:00Z,27.2267,-91.1901,30.7,23.1,11111222
Chevron,ioos:station:GCOOS:42G03:1,2024-04-02T05:25:00Z,27.2267,-91.1901,30.7,23.7,11111222
Chevron,ioos:station:GCOOS:42G03:1,2024-04-02T05:35:00Z,27.2267,-91.1901,30.7,24.0,11111222
Chevron,ioos:station:GCOOS:42G03:1,2024-04-02T05:46:00Z,27.2267,-91.1901,30.7,24.3,11111222
Chevron,ioos:station:GCOOS:42G03:1,2024-04-02T05:56:00Z,27.2267,-91.1901,30.7,24.6,11111222
Chevron,ioos:station:GCOOS:42G03:1,2024-04-02T06:06:00Z,27.2267,-91.1901,30.7,24.7,11111222
Chevron,ioos:station:GCOOS:42G03:1,2024-04-02T06:16:00Z,27.2267,-91.1901,30.7,24.7,11111222
Chevron,ioos:station:GCOOS:42G03:1,2024-04-02T06:26:00Z,27.2267,-91.1901,30.7,24.7,11111222
Chevron,ioos:station:GCOOS:42G03:1,2024-04-02T06:36:00Z,27.2267,-91.1901,30.7,24.7,11111222
Chevron,ioos:station:GCOOS:42G03:1,2024-04-02T06:46:00Z,27.2267,-91.1901,30.7,24.7,11111222
Chevron,ioos:station:GCOOS:42G03:1,2024-04-02T06:56:00Z,27.2267,-91.1901,30.7,24.7,11111222
Chevron,ioos:station:GCOOS:42G03:1,2024-04-02T07:06:00Z,27.2267,-91.1901,30.7,24.7,11111222
Chevron,ioos:station:GCOOS:42G03:1,2024-04-02T07:16:00Z,27.2267,-91.1901,30.7,24.7,11111222
Chevron,ioos:station:GCOOS:42G03:1,2024-04-02T07:26:00Z,27.2267,-91.1901,30.7,24.7,11111222
Chevron,ioos:station:GCOOS:42G03:1,2024-04-02T07:36:00Z,27.2267,-91.1901,30.7,24.7,11111222
Chevron,ioos:station:GCOOS:42G03:1,2024-04-02T07:46:00Z,27.2267,-91.1901,30.7,24.8,11111222
Chevron,ioos:station:GCOOS:42G03:1,2024-04-02T07:56:00Z,27.2267,-91.1901,30.7,24.8,11111222
Chevron,ioos:station:GCOOS:42G03:1,2024-04-02T08:06:00Z,27.2267,-91.1901,30.7,24.8,11111222
Chevron,ioos:station:GCOOS:42G03:1,2024-04-02T08:16:00Z,27.2267,-91.1901,30.7,24.8,11111222
Chevron,ioos:station:GCOOS:42G03:1,2024-04-02T08:26:00Z,27.2267,-91.1901,30.7,24.8,11111222
Chevron,ioos:station:GCOOS:42G03:1,2024-04-02T08:36:00Z,27.2267,-91.1901,30.7,24.8,11111222
Chevron,ioos:station:GCOOS:42G03:1,2024-04-02T08:46:00Z,27.2267,-91.1901,30.7,24.8,11111222
Chevron,ioos:station:GCOOS:42G03:1,2024-04-02T08:56:00Z,27.2267,-91.1901,30.7,24.7,11111222
Chevron,ioos:station:GCOOS:42G03:1,2024-04-02T09:06:00Z,27.2267,-91.1901,30.7,24.7,11111222
Chevron,ioos:station:GCOOS:42G03:1,2024-04-02T09:16:00Z,27.2267,-91.1901,30.8,24.7,11111222
Chevron,ioos:station:GCOOS:42G03:1,2024-04-02T09:26:00Z,27.2267,-91.1901,30.8,24.7,11111222
Chevron,ioos:station:GCOOS:42G03:1,2024-04-02T09:36:00Z,27.2267,-91.1901,30.8,24.7,11111222
Chevron,ioos:station:GCOOS:42G03:1,2024-04-02T09:46:00Z,27.2267,-91.1901,30.8,24.6,11111222
Chevron,ioos:station:GCOOS:42G03:1,2024-04-02T09:56:00Z,27.2267,-91.1901,30.8,24.6,11111222
Chevron,ioos:station:GCOOS:42G03:1,2024-04-02T10:06:00Z,27.2267,-91.1901,30.8,24.6,11111222
Chevron,ioos:station:GCOOS:42G03:1,2024-04-02T10:16:00Z,27.2267,-91.1901,30.8,24.6,11111222
Chevron,ioos:station:GCOOS:42G03:1,2024-04-02T10:26:00Z,27.2267,-91.1901,30.8,24.6,11111222
Chevron,ioos:station:GCOOS:42G03:1,2024-04-02T10:36:00Z,27.2267,-91.1901,30.8,24.6,11111222
Chevron,ioos:station:GCOOS:42G03:1,2024-04-02T10:46:00Z,27.2267,-91.1901,30.8,24.5,11111222
Chevron,ioos:station:GCOOS:42G03:1,2024-04-02T11:05:00Z,27.2267,-91.1901,30.8,24.5,11111222
Chevron,ioos:station:GCOOS:42G03:1,2024-04-02T11:15:00Z,27.2267,-91.1901,30.8,24.5,11111222
Chevron,ioos:station:GCOOS:42G03:1,2024-04-02T11:25:00Z,27.2267,-91.1901,30.8,24.5,11111222
Chevron,ioos:station:GCOOS:42G03:1,2024-04-02T11:35:00Z,27.2267,-91.1901,30.8,24.4,11111222
Chevron,ioos:station:GCOOS:42G03:1,2024-04-02T11:46:00Z,27.2267,-91.1901,30.8,24.4,11111222
Chevron,ioos:station:GCOOS:42G03:1,2024-04-02T11:56:00Z,27.2267,-91.1901,30.9,24.4,11111222
Chevron,ioos:station:GCOOS:42G03:1,2024-04-02T12:06:00Z,27.2267,-91.1901,30.9,24.4,11111222
Chevron,ioos:station:GCOOS:42G03:1,2024-04-02T12:16:00Z,27.2267,-91.1901,30.9,24.4,11111222
Chevron,ioos:station:GCOOS:42G03:1,2024-04-02T12:26:00Z,27.2267,-91.1901,30.9,24.3,11111222
Chevron,ioos:station:GCOOS:42G03:1,2024-04-02T12:36:00Z,27.2267,-91.1901,30.9,24.3,11111222
Chevron,ioos:station:GCOOS:42G03:1,2024-04-02T12:46:00Z,27.2267,-91.1901,30.9,24.2,11111222
Chevron,ioos:station:GCOOS:42G03:1,2024-04-02T12:56:00Z,27.2267,-91.1901,30.9,24.2,11111222
Chevron,ioos:station:GCOOS:42G03:1,2024-04-02T13:06:00Z,27.2267,-91.1901,30.9,24.2,11111222
Chevron,ioos:station:GCOOS:42G03:1,2024-04-02T13:16:00Z,27.2267,-91.1901,30.9,24.2,11111222
Chevron,ioos:station:GCOOS:42G03:1,2024-04-02T13:26:00Z,27.2267,-91.1901,30.9,24.2,11111222
Chevron,ioos:station:GCOOS:42G03:1,2024-04-02T13:36:00Z,27.2267,-91.1901,30.9,24.2,11111222
Chevron,ioos:station:GCOOS:42G03:1,2024-04-02T13:46:00Z,27.2267,-91.1901,30.9,24.2,11111222
Chevron,ioos:station:GCOOS:42G03:1,2024-04-02T13:56:00Z,27.2267,-91.1901,30.9,24.2,11111222
Chevron,ioos:station:GCOOS:42G03:1,2024-04-02T14:06:00Z,27.2267,-91.1901,30.9,24.2,11111222
Chevron,ioos:station:GCOOS:42G03:1,2024-04-02T14:16:00Z,27.2267,-91.1901,30.9,24.2,11111222
Chevron,ioos:station:GCOOS:42G03:1,2024-04-02T14:26:00Z,27.2267,-91.1901,30.9,24.2,11111222
Chevron,ioos:station:GCOOS:42G03:1,2024-04-02T14:36:00Z,27.2267,-91.1901,30.9,24.2,11111222
Chevron,ioos:station:GCOOS:42G03:1,2024-04-02T14:46:00Z,27.2267,-91.1901,30.9,24.2,11111222
Chevron,ioos:station:GCOOS:42G03:1,2024-04-02T14:56:00Z,27.2267,-91.1901,30.9,24.2,11111222
Chevron,ioos:station:GCOOS:42G03:1,2024-04-02T15:06:00Z,27.2267,-91.1901,30.9,24.2,11111222
Chevron,ioos:station:GCOOS:42G03:1,2024-04-02T15:16:00Z,27.2267,-91.1901,30.8,24.2,11111222
Chevron,ioos:station:GCOOS:42G03:1,2024-04-02T15:26:00Z,27.2267,-91.1901,30.8,24.2,11111222
Chevron,ioos:station:GCOOS:42G03:1,2024-04-02T15:36:00Z,27.2267,-91.1901,30.8,24.2,11111222
Chevron,ioos:station:GCOOS:42G03:1,2024-04-02T15:46:00Z,27.2267,-91.1901,30.8,24.2,11111222
Chevron,ioos:station:GCOOS:42G03:1,2024-04-02T15:56:00Z,27.2267,-91.1901,30.8,24.2,11111222
Chevron,ioos:station:GCOOS:42G03:1,2024-04-02T16:06:00Z,27.2267,-91.1901,30.8,24.2,11111222
Chevron,ioos:station:GCOOS:42G03:1,2024-04-02T16:16:00Z,27.2267,-91.1901,30.8,24.2,11111222
Chevron,ioos:station:GCOOS:42G03:1,2024-04-02T16:26:00Z,27.2267,-91.1901,30.8,24.2,11111222
Chevron,ioos:station:GCOOS:42G03:1,2024-04-02T16:36:00Z,27.2267,-91.1901,30.8,24.2,11111222
Chevron,ioos:station:GCOOS:42G03:1,2024-04-02T16:46:00Z,27.2267,-91.1901,30.8,24.2,11111222
Chevron,ioos:station:GCOOS:42G03:1,2024-04-02T17:05:00Z,27.2267,-91.1901,30.8,24.2,11111222
Chevron,ioos:station:GCOOS:42G03:1,2024-04-02T17:15:00Z,27.2267,-91.1901,30.8,24.2,11111222
Chevron,ioos:station:GCOOS:42G03:1,2024-04-02T17:25:00Z,27.2267,-91.1901,30.8,24.2,11111222
Chevron,ioos:station:GCOOS:42G03:1,2024-04-02T17:35:00Z,27.2267,-91.1901,30.8,24.2,11111222
Chevron,ioos:station:GCOOS:42G03:1,2024-04-02T17:46:00Z,27.2267,-91.1901,30.8,24.2,11111222
Chevron,ioos:station:GCOOS:42G03:1,2024-04-02T17:56:00Z,27.2267,-91.1901,30.8,24.2,11111222
Chevron,ioos:station:GCOOS:42G03:1,2024-04-02T18:06:00Z,27.2267,-91.1901,30.8,24.2,11111222
Chevron,ioos:station:GCOOS:42G03:1,2024-04-02T18:16:00Z,27.2267,-91.1901,30.8,24.2,11111222
Chevron,ioos:station:GCOOS:42G03:1,2024-04-02T18:26:00Z,27.2267,-91.1901,30.8,24.2,11111222
Chevron,ioos:station:GCOOS:42G03:1,2024-04-02T18:36:00Z,27.2267,-91.1901,30.8,24.2,11111222
Chevron,ioos:station:GCOOS:42G03:1,2024-04-02T18:46:00Z,27.2267,-91.1901,30.8,24.2,11111222
Chevron,ioos:station:GCOOS:42G03:1,2024-04-02T18:56:00Z,27.2267,-91.1901,30.8,24.2,11111222
Chevron,ioos:station:GCOOS:42G03:1,2024-04-02T19:06:00Z,27.2267,-91.1901,30.8,24.2,11111222
Chevron,ioos:station:GCOOS:42G03:1,2024-04-02T19:16:00Z,27.2267,-91.1901,30.8,24.3,11111222
Chevron,ioos:station:GCOOS:42G03:1,2024-04-02T19:26:00Z,27.2267,-91.1901,30.8,24.3,11111222
Chevron,ioos:station:GCOOS:42G03:1,2024-04-02T19:36:00Z,27.2267,-91.1901,30.8,24.3,11111222
Chevron,ioos:station:GCOOS:42G03:1,2024-04-02T19:46:00Z,27.2267,-91.1901,30.8,24.3,11111222